{"data":{"norad_id":56349,"epoch":"2026-09-20T22:00:03.000096Z","epoch_age_seconds":72596,"freshness":"FRESH","line1":"1 56349U 23058AJ  26263.91670139  .00080157  00000+0  37811-2 0  9992","line2":"2 56349  97.2808 257.8358 0001995  63.4348 180.5135 15.19129203  5789","mean_motion":15.19129203,"eccentricity":0.0001995,"inclination_deg":97.2808,"raan_deg":257.8358,"arg_perigee_deg":63.4348,"mean_anomaly_deg":180.5135,"bstar":0.0037811,"rev_number":578,"period_min":94.791147267544,"perigee_km":507.09717858061,"apogee_km":509.84493519531,"semimajor_km":6886.608056888,"source":"CELESTRAK","updated_at":"2026-09-21T09:00:33.407034Z"}}